Location: Brede
(50.9167°N, 0.6000°E)
Time: 19:25:57
(UTC+00:00)

Cosmos 2297 Rocket - Pass Details

Date: 08 August 2020
Orbit: 838 x 845 km, 71.0° (Epoch: 24 September)

Event Time Altitude Azimuth Distance (km) Brightness Sun altitude
Exits shadow 02:13:05 28° 226° (SW) 1,523 3.0 -17.3°
Maximum altitude 02:16:06 69° 303° (WNW) 901 2.3 -17.0°
Drops below altitude 10° 02:21:45 10° 27° (NNE) 2,469 5.9 -16.5°
Sets 02:24:14 0° 30° (NNE) 3,409 7.2 -16.3°
